Location: Unspecified
(42.1900°N, 71.3291°W)
Time: 17:35:57
(UTC-04:00)

Hubble Space Telescope - Visible Passes

Search period start: 28 March 2017 00:00
Search period end: 07 April 2017 00:00
Orbit: 538 x 542 km, 28.5° (Epoch: 27 March)

Date Brightness Start Highest point End Pass type
(mag) Time Alt. Az. Time Alt. Az. Time Alt. Az.
29 Mar 3.2 04:56:01 11° S 04:56:24 11° S 04:57:25 10° SSE visible
30 Mar 3.1 04:46:30 11° S 04:46:30 11° S 04:47:38 10° SSE visible
31 Mar 3.2 04:37:01 11° SSE 04:37:01 11° SSE 04:37:40 10° SSE visible
01 Apr 3.4 04:27:33 10° SSE 04:27:33 10° SSE 04:27:34 10° SSE visible
